Monroe Regional Airport Monroe US
ICAO: KMLU
IATA: MLU
Category: Large
Scheduled Services: Yes

Elevation: 79 ft
TransAlt. 18000 ft.

Airport Communications:
APP/DEP:118.15
ATIS:125.05
CLNC DEL:121.65
CTAF:118.9
GND:121.9
DE RIDDER RDO:122.25
TWR:118.9
UNICOM:122.95

KMLU Zoom In..

If you have problems with the map follow the link
https://www.worldairports.se/pages/airport.php?
ICAO=KMLU

Runways:

(A) RW 04 length 7505 ft width 150 ft
ILS 109.50 / hdg 42

(B) RW 14 length 4999 ft width 150 ft
---- / hdg 137

(C) RW 18 length 5001 ft width 150 ft
---- / hdg 177

(D) RW 22 length 7505 ft width 150 ft
ILS 109.50 / hdg 222

(E) RW 32 length 4999 ft width 150 ft
---- / hdg 317

(F) RW 36 length 5001 ft width 150 ft
---- / hdg 357

Location; KMLU
Day. 16 / Time. 01.53 Zulu
* Altimeter: 29.86
* Temperature: 22° c. 71.6°f.
* Wind from: 180° Speed 09 kn.
Dewpoint: 17° c.
Visibility: 10 Statute Miles.
Clouds: Clear (automated report).

KMLU 160153Z 18009KT 10SM CLR 22/17 A2986 RMK AO2 SLP109 T02170172


Wind From 180°
Speed 09 kn.

 
 
jpsmedia worldairports.se 2019   terms of use